| time (UTC) | temp F | wind direction | speed MPH | gust MPH | rain 1hr in | rain 24hr in | rain mn in | humidity % | barometer mb |
| 20260504050004 | 58 | 327 | 0.0 | 2.0 | 0.00 | 0.00 | 0.00 | 65 | 1012.4 |
| 20260504045004 | 58 | 316 | 0.0 | 1.0 | 0.00 | 0.00 | 0.00 | 65 | 1012.4 |
| 20260504044004 | 58 | 290 | 0.0 | 1.0 | 0.00 | 0.00 | 0.00 | 65 | 1012.4 |
| 20260504042004 | 59 | 323 | 0.0 | 0.0 | 0.00 | 0.00 | 0.00 | 66 | 1012.4 |
| 20260504041004 | 59 | 15 | 0.0 | 0.0 | 0.00 | 0.00 | 0.00 | 65 | 1012.4 |
| 20260504040004 | 59 | 323 | 0.0 | 0.0 | 0.00 | 0.00 | 0.00 | 65 | 1012.4 |
| 20260504034004 | 60 | 307 | 0.0 | 6.0 | 0.00 | 0.00 | 0.00 | 64 | 1012.4 |
| 20260504032004 | 60 | 326 | 0.0 | 6.0 | 0.00 | 0.00 | 0.00 | 63 | 1012.4 |
| 20260504031004 | 60 | 329 | 0.0 | 9.0 | 0.00 | 0.00 | 0.00 | 63 | 1012.4 |
| 20260504030004 | 61 | 308 | 1.0 | 10.0 | 0.00 | 0.00 | 0.00 | 62 | 1012.4 |
| 20260504025005 | 61 | 334 | 2.0 | 9.0 | 0.00 | 0.00 | 0.00 | 61 | 1012.4 |
| 20260504024004 | 61 | 346 | 0.0 | 9.0 | 0.00 | 0.00 | 0.00 | 61 | 1012.4 |
| 20260504023004 | 61 | 343 | 0.0 | 6.0 | 0.00 | 0.00 | 0.00 | 60 | 1012.4 |
| 20260504022004 | 62 | 325 | 1.0 | 6.0 | 0.00 | 0.00 | 0.00 | 60 | 1012.4 |
| 20260504021004 | 62 | 347 | 0.0 | 6.0 | 0.00 | 0.00 | 0.00 | 59 | 1012.4 |
| 20260504020004 | 62 | 326 | 1.0 | 10.0 | 0.00 | 0.00 | 0.00 | 58 | 1012.4 |
| 20260504015004 | 62 | 2 | 0.0 | 12.0 | 0.00 | 0.00 | 0.00 | 59 | 1012.4 |
| 20260504014004 | 63 | 346 | 3.0 | 12.0 | 0.00 | 0.00 | 0.00 | 58 | 1012.4 |
| 20260504013004 | 63 | 263 | 2.0 | 10.0 | 0.00 | 0.00 | 0.00 | 59 | 1012.4 |
| 20260504011004 | 63 | 293 | 4.0 | 14.0 | 0.00 | 0.00 | 0.00 | 58 | 1012.4 |
| 20260504010004 | 64 | 314 | 3.0 | 14.0 | 0.00 | 0.00 | 0.00 | 57 | 1012.4 |
| 20260504005004 | 64 | 296 | 4.0 | 13.0 | 0.00 | 0.00 | 0.00 | 56 | 1012.4 |
| 20260504004003 | 64 | 286 | 6.0 | 14.0 | 0.00 | 0.00 | 0.00 | 55 | 1012.4 |
| 20260504002005 | 65 | 306 | 3.0 | 12.0 | 0.00 | 0.00 | 0.00 | 56 | 1012.4 |
| 20260504001003 | 66 | 277 | 2.0 | 12.0 | 0.00 | 0.00 | 0.00 | 58 | 1012.4 |
| 20260504000003 | 66 | 247 | 1.0 | 6.0 | 0.00 | 0.00 | 0.00 | 58 | 1012.4 |
| 20260503235004 | 66 | 249 | 2.0 | 12.0 | 0.00 | 0.00 | 0.00 | 57 | 1012.4 |
| 20260503234004 | 67 | 253 | 1.0 | 10.0 | 0.00 | 0.00 | 0.00 | 56 | 1012.4 |
| 20260503232004 | 68 | 271 | 1.0 | 16.0 | 0.00 | 0.00 | 0.00 | 56 | 1012.4 |
| 20260503231004 | 68 | 220 | 5.0 | 10.0 | 0.00 | 0.00 | 0.00 | 56 | 1012.4 |
| 20260503230004 | 69 | 231 | 3.0 | 12.0 | 0.00 | 0.00 | 0.00 | 56 | 1012.4 |
| 20260503225004 | 69 | 178 | 1.0 | 10.0 | 0.00 | 0.00 | 0.00 | 56 | 1012.4 |
| 20260503224004 | 69 | 239 | 6.0 | 12.0 | 0.00 | 0.00 | 0.00 | 56 | 1012.4 |
| 20260503223004 | 69 | 187 | 3.0 | 10.0 | 0.00 | 0.00 | 0.00 | 58 | 1012.4 |
| 20260503222004 | 68 | 266 | 0.0 | 6.0 | 0.00 | 0.00 | 0.00 | 58 | 1012.4 |
| 20260503221004 | 68 | 208 | 0.0 | 9.0 | 0.00 | 0.00 | 0.00 | 57 | 1012.4 |
| 20260503220004 | 68 | 215 | 0.0 | 7.0 | 0.00 | 0.00 | 0.00 | 58 | 1012.4 |
| 20260503211004 | 68 | 224 | 7.0 | 12.0 | 0.00 | 0.00 | 0.00 | 57 | 1012.4 |
| 20260503210005 | 68 | 209 | 1.0 | 10.0 | 0.00 | 0.00 | 0.00 | 57 | 859.1 |
| 20260503205003 | 68 | 217 | 9.0 | 14.0 | 0.00 | 0.00 | 0.00 | 58 | 859.1 |
| 20260503203004 | 67 | 210 | 7.0 | 13.0 | 0.00 | 0.00 | 0.00 | 59 | 950.0 |
| 20260503202004 | 66 | 205 | 2.0 | 10.0 | 0.00 | 0.00 | 0.00 | 60 | 950.9 |
| 20260503201004 | 65 | 274 | 5.0 | 12.0 | 0.00 | 0.00 | 0.00 | 61 | 891.3 |
| 20260503200003 | 64 | 204 | 1.0 | 6.0 | 0.00 | 0.00 | 0.00 | 62 | 891.3 |
| 20260503195004 | 64 | 47 | 0.0 | 0.0 | 0.00 | 0.00 | 0.00 | 62 | 891.3 |
| 20260503194004 | 63 | 48 | 0.0 | 3.0 | 0.00 | 0.00 | 0.00 | 62 | 890.6 |
| 20260503193004 | 62 | 17 | 0.0 | 3.0 | 0.00 | 0.00 | 0.00 | 62 | 890.6 |
| 20260503192004 | 62 | 313 | 2.0 | 6.0 | 0.00 | 0.00 | 0.00 | 61 | 830.5 |
| 20260503190004 | 61 | 359 | 3.0 | 7.0 | 0.00 | 0.00 | 0.00 | 59 | 823.4 |
| 20260503182005 | 60 | 320 | 1.0 | 6.0 | 0.00 | 0.00 | 0.00 | 50 | 824.9 |
| 20260503181004 | 59 | 262 | 2.0 | 5.0 | 0.00 | 0.00 | 0.00 | 48 | 824.9 |
| 20260503180005 | 59 | 304 | 2.0 | 6.0 | 0.00 | 0.00 | 0.00 | 45 | 824.9 |
| 20260503175004 | 59 | 244 | 2.0 | 10.0 | 0.00 | 0.00 | 0.00 | 42 | 824.9 |
| 20260503174004 | 59 | 335 | 1.0 | 6.0 | 0.00 | 0.00 | 0.00 | 39 | 824.9 |
| 20260503173004 | 58 | 296 | 2.0 | 6.0 | 0.00 | 0.00 | 0.00 | 35 | 891.7 |
| 20260503172004 | 58 | 314 | 1.0 | 5.0 | 0.00 | 0.00 | 0.00 | 34 | 830.2 |
| 20260503171004 | 58 | 236 | 0.0 | 5.0 | 0.00 | 0.00 | 0.00 | 33 | 824.7 |
| 20260503151004 | 55 | 208 | 4.0 | 6.0 | 0.00 | 0.00 | 0.00 | 3 | 951.8 |